Wind_Speed
6 4 4 4 5 6 7 9 10 11 12 14 15 16 16 17 17 17 17 17 17 17 17 15 15 16 16 14 11 10 10 10 10 15 21 21 27 32 36 36 28 22 19 17 17 17 20 19 17 22 20 16 18 17 17 16 14 15 13 12 13 14 14 15 15 14 12 11 9 7 7 7 6 6 7 6 6 6 6 6 6 6 7 6 6
4 3 2 3 4 6 7 8 10 11 12 13 15 16 16 17 18 17 17 17 17 17 17 15 15 17 17 15 11 9 9 7 9 13 19 21 26 33 34 34 28 22 17 16 17 16 19 18 16 20 19 18 17 15 16 16 15 15 13 12 13 14 13 14 17 16 12 12 11 8 6 6 6 6 7 7 7 7 7 7 7 7 7 7 7
3 2 1 2 4 5 7 8 9 10 11 13 14 15 16 17 18 17 17 17 17 17 17 16 16 17 16 14 10 8 8 5 6 9 17 20 24 30 30 30 30 24 20 19 17 16 17 16 15 16 16 19 19 16 16 17 16 16 15 14 13 13 12 13 16 15 12 12 11 7 6 7 6 6 8 9 9 8 8 8 7 8 8 8 7
3 2 1 1 3 5 7 8 9 10 11 12 14 15 16 17 18 17 16 16 17 17 17 17 16 17 16 13 9 7 7 4 2 5 14 20 24 27 25 25 26 24 23 22 19 17 16 17 17 15 16 18 18 16 17 19 18 17 16 16 14 13 12 13 14 12 11 13 8 2 4 7 4 6 9 9 10 10 9 9 8 8 9 9 8
3 2 0 2 3 5 7 8 9 10 11 12 13 15 16 17 18 17 16 15 17 18 18 17 15 16 16 14 11 7 5 3 2 2 8 18 26 27 23 22 22 21 22 22 20 17 16 18 19 17 17 18 17 16 16 18 19 18 18 17 16 15 13 14 13 12 11 13 11 3 4 5 3 8 10 8 10 11 9 10 9 9 10 9 9
3 1 1 2 3 5 6 8 10 11 11 11 12 14 15 17 17 16 16 15 16 17 17 17 14 14 15 14 13 10 7 4 1 2 2 10 22 25 23 22 19 16 18 17 18 19 15 14 16 17 18 17 17 17 16 18 18 19 19 17 18 17 14 13 13 13 12 11 12 7 4 2 1 7 8 5 8 10 9 11 10 10 10 10 10
3 2 2 2 3 5 7 8 9 11 11 12 12 13 15 16 17 16 16 15 16 16 17 16 14 14 14 13 12 12 10 7 3 2 2 7 14 20 22 23 19 14 14 15 16 21 19 15 12 14 17 16 16 16 16 18 18 18 19 17 18 17 14 14 13 13 11 10 11 9 5 4 5 7 4 3 5 6 8 10 10 11 11 10 11
4 3 2 1 3 5 6 8 10 10 11 12 12 13 14 16 17 17 16 15 15 16 16 16 15 14 13 12 11 11 11 10 6 1 5 5 7 14 20 22 20 15 13 14 15 17 20 20 15 13 14 12 14 16 15 16 18 17 16 16 16 16 15 15 14 13 12 10 11 10 7 7 8 9 6 4 4 4 6 8 8 10 11 11 11
4 3 2 1 2 4 6 8 9 10 10 12 13 14 14 15 16 17 16 15 15 15 15 14 14 13 12 12 11 11 11 10 8 3 5 6 2 8 16 18 19 17 13 13 14 13 16 20 18 15 12 10 14 17 15 15 16 14 13 13 13 13 14 15 15 15 14 12 11 10 10 10 9 8 7 8 6 3 4 6 8 10 10 11 11
4 3 2 1 2 3 5 7 9 10 11 12 13 14 14 14 16 17 16 16 15 14 14 14 13 12 12 12 12 11 11 11 9 7 0 8 6 3 8 13 16 18 14 10 11 12 14 16 17 16 13 12 16 15 15 13 12 11 10 11 11 12 14 14 14 15 16 16 15 14 13 12 9 8 8 8 9 6 4 5 9 11 8 10 12
4 4 3 1 1 3 5 7 9 11 11 12 13 14 15 15 16 16 17 17 16 15 13 13 12 11 11 11 11 11 10 11 9 9 8 2 9 7 4 6 10 14 14 10 8 10 12 13 14 16 15 14 15 11 13 12 10 9 9 9 10 10 12 12 12 13 15 15 15 13 13 11 9 8 8 8 8 7 6 4 7 9 7 8 11
4 4 2 0 2 3 6 8 9 11 12 12 12 13 15 15 16 16 17 17 16 15 13 12 12 11 10 10 10 10 9 9 9 9 11 7 2 6 5 5 6 9 12 10 7 8 10 11 11 13 15 14 14 11 10 12 11 10 9 9 8 9 9 10 11 12 13 13 13 12 12 10 10 10 9 8 8 7 7 5 5 6 6 5 10
3 3 1 1 2 4 6 8 9 10 12 12 13 14 15 15 16 17 18 17 16 15 14 11 11 11 10 9 9 9 9 7 8 8 9 10 7 2 3 5 6 7 10 11 9 8 9 8 7 9 11 12 15 11 8 11 10 9 9 10 9 9 9 9 10 11 12 12 12 11 11 11 11 10 9 9 8 8 8 6 7 6 6 5 7
4 3 1 1 2 4 6 7 9 10 12 12 13 15 15 15 16 17 17 17 15 15 13 11 10 10 10 9 8 8 8 7 6 7 7 8 8 5 2 2 5 6 7 10 10 8 8 8 6 6 9 11 15 12 7 8 9 8 9 10 10 10 9 9 10 10 11 12 11 10 11 11 11 11 10 10 9 10 9 8 8 7 7 8 7
4 2 1 0 2 4 5 7 9 10 11 12 13 15 16 15 16 17 17 16 15 14 13 12 11 10 10 10 9 7 7 7 5 5 6 6 5 5 3 1 2 4 5 7 8 7 6 6 5 6 8 11 14 11 7 7 8 8 8 9 10 10 10 10 10 10 11 12 12 11 11 11 12 11 11 11 11 11 10 9 9 7 6 8 8
4 3 1 1 1 3 5 7 9 10 11 12 13 15 16 16 16 17 17 16 15 14 13 12 11 10 10 9 9 8 7 7 6 5 4 4 4 3 2 2 1 1 2 3 6 6 4 4 4 6 7 8 11 11 8 8 8 8 8 9 10 10 11 11 11 11 12 12 13 13 12 12 12 12 13 13 12 12 11 11 11 10 8 6 6
3 2 1 1 1 3 5 7 9 10 11 11 12 14 16 16 16 16 16 15 15 14 12 12 11 11 11 10 9 8 7 7 6 6 5 4 3 3 2 2 2 1 1 1 4 6 6 5 5 6 6 7 9 10 9 9 9 9 9 9 10 11 11 12 13 13 13 13 14 14 14 14 13 13 14 14 14 13 13 13 13 13 12 8 6
2 1 1 1 1 3 5 8 9 10 11 10 11 14 15 15 16 16 16 15 15 14 13 12 12 11 11 10 10 9 8 7 7 7 6 6 5 4 3 3 3 2 2 2 2 5 7 8 8 7 6 6 8 9 9 9 9 9 10 10 10 10 11 11 13 14 14 14 15 16 16 15 13 13 13 14 14 14 14 15 15 15 15 13 11
3 3 3 1 1 3 5 7 9 10 10 9 11 14 14 15 16 15 15 15 14 14 13 12 12 11 11 11 11 9 8 8 8 8 8 7 7 7 5 4 4 2 2 2 3 4 6 8 10 10 9 7 7 7 8 8 8 9 10 11 11 10 11 12 12 13 13 13 14 15 15 14 14 14 14 14 14 15 15 16 16 16 17 17 17
4 4 2 1 1 3 5 7 9 10 10 10 11 14 14 15 16 16 15 15 14 13 13 12 11 11 11 11 11 10 9 9 8 8 8 8 8 8 8 6 5 3 2 3 4 5 6 7 8 10 10 9 7 7 8 8 9 10 11 12 11 11 12 12 13 13 13 13 14 14 15 14 14 14 15 15 15 15 15 16 16 17 17 16 17
3 2 2 1 1 3 5 7 9 10 10 10 12 14 14 15 16 16 15 15 14 13 12 11 10 10 11 11 11 11 10 9 8 8 8 8 8 8 9 8 8 6 4 5 7 7 8 8 8 8 8 8 7 8 8 8 9 11 11 11 11 12 13 13 13 14 14 14 14 15 15 15 15 15 15 15 15 15 15 16 17 17 17 17 16
3 2 2 1 1 4 5 7 9 11 11 11 13 14 14 15 16 16 15 15 15 13 12 11 10 10 10 10 11 10 10 9 8 8 7 8 8 7 8 8 9 9 7 8 9 10 9 10 11 10 9 9 8 7 8 8 9 10 11 11 11 12 13 14 14 14 14 14 14 15 16 16 16 16 16 15 15 15 15 16 17 17 17 17 17
3 3 2 1 2 4 5 7 9 11 11 12 13 14 15 16 16 16 15 14 14 13 12 11 11 10 10 10 10 10 9 9 9 7 7 7 7 7 7 7 8 9 10 10 10 11 11 10 11 12 12 12 10 8 7 7 9 10 10 11 12 12 13 15 15 15 15 15 15 16 16 16 16 17 17 16 15 15 15 16 17 17 17 18 17
4 4 3 2 2 3 5 7 10 11 11 12 13 14 15 15 15 15 15 14 14 13 12 12 11 11 10 10 10 9 8 8 7 6 5 5 5 6 6 6 6 7 9 10 10 11 12 11 11 11 11 12 13 13 11 10 10 11 11 11 12 13 15 16 16 15 14 15 15 15 16 16 16 17 17 16 15 15 16 16 16 17 17 17 17
4 4 3 2 2 3 5 8 10 11 12 12 13 14 14 14 14 14 14 14 14 13 12 12 11 11 10 9 9 8 8 7 6 6 5 5 5 5 6 6 6 7 8 9 10 11 12 12 12 11 11 11 13 15 14 13 13 13 12 12 12 13 15 16 18 17 15 15 15 15 16 16 17 17 17 16 16 16 17 16 16 16 17 16 16
4 4 3 2 2 3 5 8 10 12 12 12 12 13 13 14 14 13 13 13 13 13 12 12 11 11 10 10 9 9 8 7 6 6 6 5 5 5 6 6 6 7 8 8 9 11 12 12 12 12 12 11 11 13 14 15 15 15 14 13 14 14 14 14 16 16 15 14 14 14 15 16 17 17 17 17 16 17 17 17 17 17 16 15 15
4 4 3 2 2 3 5 9 11 12 11 11 11 12 12 13 14 14 13 12 12 12 12 11 11 10 10 10 9 9 9 8 6 5 5 5 5 6 6 7 7 7 8 8 9 10 11 12 13 13 13 13 13 13 15 15 15 15 15 15 15 15 15 15 14 14 14 14 13 14 14 15 16 16 17 18 17 17 17 17 17 17 16 15 15
4 5 4 3 2 3 6 9 11 11 10 10 10 10 11 13 14 15 14 13 12 11 11 11 10 10 10 9 10 10 9 8 6 6 5 5 6 6 7 8 8 8 8 8 9 9 10 11 12 12 13 13 14 15 15 16 17 17 17 16 16 16 16 15 14 14 13 13 13 14 14 15 15 15 17 17 17 16 16 16 18 17 16 15 15
5 5 4 3 2 3 6 9 10 9 9 8 9 10 11 12 13 14 15 14 12 11 10 10 10 10 9 9 9 9 8 8 7 7 6 7 7 8 8 8 8 8 8 8 8 8 9 10 11 11 12 12 13 14 14 15 16 16 17 18 19 17 15 14 13 13 13 14 14 14 15 16 16 16 17 18 18 17 15 15 16 17 16 15 14
4 3 3 2 1 4 7 9 9 9 8 8 8 9 11 12 13 14 15 14 12 11 10 10 10 10 9 9 9 8 8 8 8 8 8 9 9 9 8 8 8 8 7 7 7 7 7 9 9 9 10 11 12 12 13 15 15 14 13 14 16 18 17 15 15 14 14 14 14 14 14 16 17 19 20 21 20 20 19 18 17 15 14 13 13
3 3 2 2 2 5 8 9 8 8 7 7 7 9 10 11 13 13 14 15 12 10 10 10 9 9 9 9 8 8 8 8 8 9 10 10 10 8 8 9 8 8 7 6 6 7 6 5 7 7 8 7 7 7 9 12 14 15 14 11 12 16 17 17 17 16 15 14 14 14 15 15 17 19 20 22 23 23 23 24 23 21 18 15 14
3 3 2 2 3 5 7 8 7 7 6 6 7 8 10 11 12 13 14 14 12 11 10 10 8 8 8 8 8 8 8 8 9 9 10 11 9 8 8 8 8 8 7 6 6 7 6 2 4 5 4 4 3 4 6 9 10 13 14 12 12 14 16 17 17 17 16 15 14 14 15 15 16 16 17 19 20 21 22 23 24 24 24 22 21
2 2 2 2 3 4 6 7 6 6 6 6 7 8 10 11 12 12 13 13 12 11 11 10 9 8 8 8 8 8 8 8 9 10 10 10 9 8 8 8 8 8 8 7 7 7 8 6 2 3 6 5 3 2 4 6 8 9 11 12 12 13 14 15 16 16 17 17 16 15 15 16 16 16 17 17 17 18 19 19 20 21 23 24 25
3 3 2 1 1 3 5 6 6 6 6 6 6 7 9 11 11 11 12 12 12 12 11 10 9 9 8 8 8 8 8 8 9 10 10 9 9 10 9 8 7 8 8 8 8 7 8 9 7 7 7 5 2 1 1 3 5 6 8 10 11 12 13 14 14 15 15 16 16 16 16 16 16 16 16 17 17 17 17 18 18 19 21 22 23
4 4 3 2 1 2 4 6 6 6 6 5 6 7 9 10 10 10 11 11 11 12 11 10 10 9 9 8 8 8 9 9 10 10 9 9 10 10 9 8 7 7 7 7 7 7 7 8 8 7 6 6 5 3 2 2 3 4 5 6 8 10 11 13 13 14 15 15 15 16 16 17 17 17 17 17 17 17 17 18 18 18 19 20 22
4 4 4 3 1 1 4 5 6 6 5 5 6 7 9 9 9 9 10 10 11 11 11 10 10 9 9 8 8 9 9 10 10 9 9 10 10 10 9 8 7 6 6 6 7 7 7 7 7 6 6 6 7 7 5 4 4 6 5 4 6 8 9 11 12 12 13 14 14 15 16 16 17 17 17 18 18 18 18 19 20 19 19 19 20
5 5 4 4 3 2 2 4 6 6 5 5 6 7 8 8 8 8 9 9 10 11 10 10 9 9 8 8 8 8 9 9 9 9 10 10 10 10 9 8 7 7 6 7 6 6 6 7 7 7 5 5 7 9 9 6 6 5 4 4 6 7 9 10 11 12 13 13 14 15 16 16 17 17 16 15 16 17 19 21 22 21 20 21 21
6 6 6 6 5 3 1 2 5 5 5 5 6 6 8 8 7 7 8 9 9 10 10 9 9 8 8 7 7 8 8 9 9 10 10 11 10 10 9 8 7 7 6 6 6 5 6 6 7 7 6 5 6 10 12 10 8 6 2 2 5 6 7 9 10 11 12 12 13 14 15 16 17 17 17 16 15 14 15 19 21 21 21 22 20
7 7 6 7 6 4 1 1 3 4 4 6 6 6 8 8 7 6 8 8 8 9 9 9 9 8 8 7 7 7 7 8 9 9 10 11 10 10 10 9 7 7 7 6 5 5 5 6 6 7 7 6 6 8 12 12 12 10 6 3 4 5 5 6 8 8 9 11 11 12 13 15 17 19 20 21 20 18 17 18 19 20 21 22 20
7 7 7 7 6 4 1 1 3 4 4 5 6 6 8 8 6 6 8 8 8 8 8 8 8 7 7 7 7 7 7 7 8 8 9 10 10 10 10 9 7 7 7 7 6 5 5 5 6 6 6 6 6 8 11 12 12 12 10 6 4 5 5 6 8 9 9 10 10 10 10 12 14 16 18 20 20 20 19 19 20 20 21 21 20
8 9 9 8 6 4 1 2 3 3 3 4 5 6 7 7 5 6 8 7 7 7 7 7 7 7 6 7 7 7 7 7 7 8 8 9 9 9 10 9 7 7 7 7 6 5 5 5 5 6 6 6 6 8 11 12 11 11 12 10 7 6 7 7 8 9 9 9 9 9 9 11 13 15 16 17 18 19 19 20 20 21 21 22 22
8 10 9 7 6 4 2 1 1 2 2 3 5 6 7 6 5 5 7 7 7 7 7 7 7 7 6 7 7 7 7 7 7 8 8 9 8 8 9 9 7 6 6 6 6 6 5 5 5 6 6 7 7 9 12 13 12 10 12 13 11 8 8 8 8 9 9 9 10 10 11 14 17 18 18 18 19 20 21 21 22 22 22 22 24
8 9 9 7 5 4 3 2 1 2 2 3 4 5 6 6 5 4 5 6 6 7 7 7 7 7 7 7 7 7 7 7 8 8 9 9 9 9 9 9 8 7 6 6 6 6 6 6 6 6 7 7 7 9 12 15 14 11 13 15 14 13 11 8 7 8 8 9 10 11 12 15 16 17 17 16 16 17 18 20 21 22 22 22 23
8 8 8 7 5 4 3 3 2 2 3 3 3 4 5 5 4 3 4 5 6 6 7 7 7 7 7 7 7 7 7 7 7 8 9 9 10 9 9 9 9 8 8 7 7 7 7 7 7 7 7 8 7 8 11 15 16 15 15 16 16 16 14 10 7 6 7 8 10 11 12 13 12 12 13 13 12 12 13 16 18 19 20 21 22
7 7 8 7 5 3 3 4 3 3 3 3 3 3 4 4 2 1 2 4 5 5 6 6 7 7 7 7 7 7 7 7 7 7 8 9 10 10 10 10 9 9 9 9 9 9 8 8 8 8 8 8 8 9 11 14 16 16 15 16 17 16 15 13 9 7 8 9 10 10 11 11 11 12 12 10 9 9 9 10 12 13 14 15 17
7 8 8 7 5 4 4 4 3 4 4 4 3 2 3 2 1 1 1 2 3 4 5 5 5 6 6 6 6 6 6 6 6 6 7 9 10 11 11 11 10 9 9 8 9 9 8 8 8 8 8 8 9 10 12 14 15 16 15 16 16 15 14 13 11 9 10 10 10 11 11 11 11 11 10 10 10 10 9 9 7 6 6 8 10
7 7 8 8 6 5 5 4 3 3 3 3 3 3 2 1 0 2 1 1 2 3 4 4 4 4 4 5 6 5 5 6 7 7 7 8 9 10 11 12 12 11 10 9 9 9 8 8 9 8 8 8 9 11 14 16 17 17 17 16 15 14 14 13 11 10 10 10 10 12 13 13 13 13 12 13 13 13 14 14 13 12 10 8 6
7 7 8 8 7 6 5 4 3 3 2 2 3 3 2 1 1 2 3 1 0 2 3 4 3 3 3 3 4 4 4 5 6 7 8 9 9 9 10 12 13 12 11 10 10 9 9 9 10 10 10 10 10 13 16 18 17 17 18 17 15 15 14 13 11 10 9 9 11 12 13 13 14 14 14 14 14 14 15 16 15 15 15 14 11
7 8 8 9 8 7 5 4 4 3 2 3 4 3 3 3 2 2 3 2 1 1 2 3 2 2 2 2 2 3 4 4 5 5 7 9 10 10 9 9 11 13 12 11 10 10 9 9 10 11 11 11 11 13 16 17 14 14 16 15 14 14 13 11 11 13 11 10 12 14 15 16 16 17 17 16 15 15 15 15 15 15 15 16 15
7 8 8 9 9 8 7 6 5 4 4 4 4 4 4 4 3 3 3 3 3 2 2 2 1 2 3 3 2 2 3 3 4 4 4 4 6 10 11 10 9 12 14 13 12 11 10 9 8 9 10 11 11 12 15 14 11 11 14 14 12 12 12 10 12 13 12 11 13 14 15 16 16 17 17 17 17 16 16 15 16 16 15 14 14
7 7 8 10 10 9 9 8 6 5 5 5 5 4 4 4 4 3 3 3 4 4 3 2 1 2 3 3 2 2 2 2 3 4 3 2 4 5 8 10 11 11 13 13 13 13 12 12 10 8 7 10 12 13 14 13 11 11 15 17 15 14 14 15 14 13 12 11 12 13 14 15 15 16 16 16 17 17 17 16 15 16 15 14 14
Wind_Direction
99 90 79 62 48 39 39 38 32 30 26 22 18 16 14 10 7 5 3 1 359 356 351 346 342 335 332 336 330 319 295 251 237 219 207 202 196 192 194 202 207 202 201 202 202 205 200 195 191 187 187 186 184 183 185 186 185 187 190 178 158 154 157 159 157 148 141 142 143 147 152 159 164 169 169 165 164 163 167 169 169 173 172 176 182
112 112 94 60 47 39 38 35 29 24 19 16 14 12 10 8 6 3 2 2 1 357 351 345 341 334 328 330 327 320 314 269 247 225 208 202 198 194 196 203 206 206 207 204 206 210 202 198 194 188 186 188 187 185 183 181 183 188 187 181 171 163 163 163 158 153 158 162 153 150 163 168 171 184 184 180 176 173 178 180 178 186 187 183 183
134 137 103 54 40 35 35 32 25 19 12 11 10 7 6 5 3 1 1 1 1 358 352 345 338 335 329 328 327 328 332 296 252 226 211 203 194 193 198 204 208 213 217 214 212 213 207 202 199 194 187 187 191 189 182 178 182 189 189 187 182 170 164 166 166 166 172 167 159 167 181 175 173 195 200 192 188 184 183 188 189 193 197 193 190
180 161 93 15 28 28 29 27 21 14 6 5 5 3 2 1 359 358 359 0 1 358 354 346 339 339 337 336 334 335 346 317 228 197 210 203 186 184 191 199 203 210 216 218 217 214 210 206 202 199 194 189 190 190 187 185 186 188 193 192 186 179 172 172 177 181 178 164 160 210 208 192 182 189 197 190 187 191 190 194 195 196 203 200 195
194 171 151 343 16 23 25 23 17 10 3 0 1 1 357 356 356 355 357 360 1 359 356 351 345 346 346 348 348 347 1 334 251 172 202 192 180 180 185 193 198 204 209 212 215 213 213 212 208 202 200 196 191 190 190 191 190 191 196 194 191 191 181 176 182 190 192 175 163 179 229 216 186 172 183 181 183 194 197 199 201 199 206 207 203
185 185 246 323 2 14 18 18 12 6 359 356 356 356 353 353 353 353 355 358 0 360 358 355 352 350 350 354 355 351 356 359 316 294 235 166 169 176 181 187 191 198 203 201 203 206 209 213 211 209 208 201 193 192 192 193 194 196 198 197 196 199 187 180 185 188 201 196 178 190 224 211 181 178 172 157 179 194 197 199 205 204 205 209 210
176 203 233 303 355 9 11 10 8 2 355 352 352 350 350 351 351 353 354 355 359 359 359 359 356 353 350 352 358 354 346 342 339 279 216 140 152 169 175 179 180 187 194 191 195 204 209 211 207 211 214 206 194 190 190 191 194 198 199 199 201 200 190 186 190 185 194 213 206 212 217 191 224 224 194 151 170 185 198 200 203 205 206 210 213
182 203 218 292 358 8 6 5 4 360 353 351 349 348 347 348 350 352 352 353 357 357 358 360 357 355 351 350 355 359 351 336 331 282 188 152 135 160 167 172 181 190 192 189 192 199 208 212 207 207 213 211 199 190 187 187 192 198 197 200 203 201 196 191 191 185 186 206 219 224 230 219 225 233 245 247 195 161 192 206 204 204 206 209 213
191 205 215 304 3 9 2 3 3 358 355 349 346 345 343 345 348 350 351 351 354 354 355 357 356 355 354 352 349 353 358 347 345 9 190 195 127 146 157 163 175 183 183 188 194 195 202 208 209 209 208 220 218 197 185 183 186 190 189 194 201 199 201 197 191 191 192 201 213 220 233 236 232 232 242 252 246 205 193 202 198 198 206 210 211
188 208 213 287 2 5 360 2 1 358 354 348 345 345 343 344 347 348 349 348 349 350 350 351 352 354 354 353 350 350 356 353 356 13 206 200 204 179 158 164 172 174 174 184 198 205 209 208 210 215 209 224 236 208 176 173 175 178 179 187 196 197 203 205 198 196 199 206 208 206 217 226 229 233 233 242 252 249 236 208 190 189 203 207 203
183 206 201 160 352 359 3 0 357 354 352 349 348 348 346 346 346 346 346 345 345 345 346 347 346 350 352 351 351 352 354 354 360 5 1 196 197 214 204 184 175 169 171 179 192 204 213 210 209 217 213 223 245 221 177 175 176 176 179 180 191 200 205 212 211 206 204 211 212 209 215 220 222 232 237 239 245 251 257 245 202 196 213 204 192
187 211 205 104 333 355 3 354 350 350 352 351 350 349 347 345 344 343 342 342 342 340 341 343 342 344 345 346 349 350 352 356 3 1 358 8 161 193 189 178 168 162 164 170 185 197 205 209 208 217 219 224 244 234 186 181 180 179 185 185 191 201 205 211 218 219 218 218 218 218 224 227 227 232 239 242 244 250 257 266 254 233 239 212 177
211 229 250 326 338 359 356 347 348 350 351 350 348 348 347 345 344 342 340 341 341 339 339 338 339 341 340 342 343 344 348 352 359 4 359 0 8 53 143 154 153 155 159 165 178 188 193 202 204 214 220 226 241 239 191 174 175 175 186 193 197 203 207 212 216 220 224 225 224 223 226 231 234 234 238 244 245 251 253 256 263 254 254 247 185
224 230 241 316 356 3 348 344 349 349 349 348 346 347 347 345 344 343 342 345 344 341 339 337 337 339 338 339 337 335 341 344 353 4 5 1 2 16 57 149 160 159 161 164 168 170 180 189 189 206 221 227 237 237 201 175 176 180 189 195 201 205 207 213 219 221 223 226 229 227 225 230 237 238 239 243 244 246 249 251 257 253 248 255 239
225 225 221 350 16 357 343 347 350 349 348 345 344 346 346 344 342 342 343 344 344 340 338 337 337 337 336 336 336 331 328 331 338 350 2 7 2 7 24 39 167 179 183 172 164 159 168 180 182 205 221 227 234 234 210 187 184 188 194 197 202 206 206 210 219 223 222 224 227 228 228 230 235 239 238 241 243 245 248 252 257 259 249 246 247
221 218 199 138 22 346 345 351 352 348 345 343 345 345 344 343 341 341 340 340 341 340 336 334 332 332 332 332 332 330 320 316 319 326 341 352 355 359 7 10 13 209 216 187 171 167 168 172 186 212 223 228 234 231 217 202 196 197 200 203 204 206 209 213 217 222 223 222 224 226 230 232 233 236 238 240 241 243 247 249 251 256 258 253 249
220 219 188 145 341 338 352 356 352 347 343 343 345 345 343 342 341 340 340 339 339 337 333 330 328 327 327 327 327 324 317 308 303 305 313 317 318 325 330 333 345 350 318 231 186 188 196 194 195 215 228 232 232 231 223 210 205 207 207 208 207 207 211 216 218 221 222 221 223 228 232 235 234 233 236 237 238 240 243 246 248 251 256 260 261
225 216 207 199 309 345 360 355 348 345 343 343 344 344 344 344 342 340 341 340 338 335 332 328 326 325 323 323 323 320 314 308 297 291 294 295 289 286 293 305 316 343 348 311 228 207 212 215 213 212 220 230 234 238 231 214 208 214 216 216 213 208 210 217 220 222 223 223 225 227 229 233 232 231 233 234 233 235 238 243 247 249 252 255 260
216 219 219 212 309 354 3 351 344 344 344 344 343 343 345 345 344 341 340 340 338 336 335 331 329 327 324 323 320 316 312 306 298 292 287 281 276 272 273 283 294 311 331 309 281 245 232 229 224 221 223 228 232 240 237 221 215 219 223 224 220 212 212 217 221 223 224 225 224 223 225 228 228 229 232 232 231 232 234 239 243 246 248 250 253
223 223 206 190 337 359 358 345 342 345 346 345 344 343 344 344 344 342 340 338 337 338 336 335 334 331 327 325 321 316 312 305 299 296 289 280 274 269 266 266 270 270 253 256 262 255 249 243 230 224 226 229 228 236 238 228 223 223 224 226 221 216 217 219 222 224 224 225 225 225 227 227 226 228 230 231 232 232 233 237 240 242 245 245 247
219 214 198 211 335 354 348 342 342 345 348 347 344 344 343 342 343 343 340 337 336 337 335 334 334 332 328 325 323 318 312 305 300 296 289 283 276 269 263 259 257 253 240 238 240 241 246 249 242 228 221 222 225 229 231 228 227 225 224 227 226 222 222 223 223 224 224 225 227 230 230 228 227 227 228 229 231 231 231 234 237 238 240 240 240
198 198 210 237 334 343 338 337 340 345 349 347 344 344 343 342 342 341 340 338 336 333 333 333 332 332 330 325 322 318 311 307 303 294 288 286 283 275 268 261 255 250 244 242 239 235 237 242 245 243 231 223 222 228 234 235 234 232 228 227 229 226 225 225 225 224 223 224 227 231 233 231 229 229 229 229 230 230 228 231 234 235 237 238 237
193 194 207 229 317 325 323 330 339 346 347 345 345 345 343 342 341 341 339 337 335 332 330 330 330 329 329 324 320 318 312 307 302 295 289 287 287 283 273 263 258 253 248 247 245 240 238 236 239 242 239 235 231 229 235 240 241 242 238 232 231 229 229 227 225 223 222 221 224 229 232 232 230 230 229 229 231 230 229 230 231 232 236 239 238
189 193 204 217 282 302 316 332 343 347 345 344 346 345 343 343 343 342 340 336 334 334 331 330 330 327 326 327 326 322 315 311 307 303 298 293 292 289 281 272 264 260 254 250 248 246 244 242 240 237 236 237 236 233 234 237 239 239 238 237 235 232 233 231 228 224 222 221 223 226 229 229 229 230 229 228 228 228 228 230 231 231 233 235 236
202 201 204 218 273 301 325 340 345 346 344 345 347 345 345 347 346 343 339 336 335 335 335 333 331 328 328 332 333 330 325 322 315 311 308 303 299 292 288 286 277 271 265 256 251 249 246 245 244 241 237 233 233 234 235 236 237 236 234 235 235 233 235 237 236 232 227 224 224 226 229 228 227 229 230 228 227 227 228 229 231 232 233 232 232
217 210 204 219 271 309 331 341 344 342 342 346 347 347 350 352 351 348 342 338 336 335 335 336 332 331 334 335 334 335 333 328 319 313 310 309 314 310 297 291 287 281 278 271 261 256 251 248 246 245 242 235 229 230 233 233 233 232 231 231 232 233 237 241 242 241 237 231 228 230 234 233 231 230 230 230 229 227 226 228 231 233 234 232 229
219 209 205 216 252 300 327 336 340 339 342 345 345 348 355 355 353 354 350 343 337 334 336 337 333 333 339 336 331 332 332 330 322 310 311 325 337 332 312 300 294 285 277 272 265 258 254 251 249 247 245 240 233 230 231 232 230 228 227 227 228 229 232 237 239 240 242 240 236 236 238 238 236 234 233 233 231 228 226 226 229 231 232 231 228
215 204 200 212 249 301 328 335 337 336 340 343 341 347 355 355 354 356 355 349 341 336 337 339 335 335 341 338 331 330 331 332 325 309 321 350 350 336 326 319 313 306 293 280 271 261 253 252 250 247 244 243 241 238 235 233 233 233 232 231 230 229 228 231 233 235 238 242 241 240 242 242 239 238 237 234 231 228 228 227 227 228 228 226 226
225 209 201 212 259 320 331 333 333 334 338 337 338 345 349 350 352 354 355 353 348 343 340 341 340 338 342 339 334 335 334 331 326 322 335 349 342 338 341 335 328 326 318 307 299 281 258 248 246 244 242 242 243 244 242 238 237 237 235 234 234 234 234 233 234 236 237 239 241 242 243 245 245 245 243 240 235 231 231 234 233 231 230 226 224
245 227 216 217 269 321 326 331 334 335 336 334 337 343 344 347 349 351 353 353 353 353 348 344 344 343 342 341 338 339 339 335 333 334 339 336 329 332 340 336 333 332 323 316 320 312 277 247 239 240 237 234 237 241 243 245 244 244 247 245 237 235 237 238 238 240 240 239 240 243 246 248 249 250 248 247 245 240 237 239 240 238 238 236 234
256 233 224 230 285 319 328 337 339 336 333 332 337 340 340 344 348 349 352 353 354 356 349 343 345 344 342 343 341 341 342 340 339 339 340 335 329 328 329 331 337 340 334 332 338 332 308 252 234 237 228 220 225 227 230 240 245 245 250 257 248 239 238 239 240 242 242 241 240 242 247 250 250 251 251 251 252 249 246 244 242 241 242 244 244
252 230 231 261 301 328 337 341 337 336 336 333 336 340 339 344 348 348 350 352 354 355 350 345 345 343 341 343 343 343 343 342 341 339 339 338 336 333 330 331 339 345 345 347 351 349 347 309 234 225 182 156 168 190 208 227 238 236 236 239 244 244 242 240 241 241 243 244 243 241 242 244 246 247 249 252 255 255 253 250 248 247 245 244 243
212 199 226 274 311 335 343 343 336 336 340 334 333 339 340 343 345 346 349 352 355 357 356 355 355 350 347 346 345 345 345 344 343 340 339 341 343 345 343 339 341 345 350 355 358 3 13 22 59 120 109 111 138 176 209 226 228 227 226 226 233 242 244 243 244 244 245 246 246 246 244 245 247 248 248 250 252 255 258 257 255 254 253 249 245
166 163 198 251 318 339 344 348 343 339 337 328 327 334 339 340 343 346 350 352 356 0 3 5 4 360 355 352 351 350 347 346 345 342 342 346 350 351 350 348 344 345 354 4 7 10 20 33 56 88 99 97 89 52 272 245 237 231 226 224 230 239 243 246 247 248 249 249 248 249 250 250 251 253 252 252 253 254 258 259 257 255 256 256 253
165 163 170 175 176 343 352 354 351 345 334 325 331 335 336 338 344 349 351 354 359 5 10 13 9 6 7 5 3 0 356 352 350 348 349 352 354 353 353 354 353 350 354 4 10 16 26 38 51 67 81 76 55 25 353 313 283 266 243 228 234 242 244 246 248 248 249 250 251 250 251 252 253 254 254 254 256 256 257 258 257 255 256 257 256
161 160 162 161 166 12 7 359 355 351 341 339 345 341 337 341 348 352 353 357 3 7 14 17 11 10 14 13 14 13 8 3 359 356 358 360 358 357 358 357 356 357 0 5 12 21 29 36 44 53 61 53 32 13 3 349 316 299 286 263 256 255 253 252 252 251 251 252 252 251 250 253 254 255 255 255 255 258 258 258 259 259 258 257 256
149 148 149 145 136 101 44 5 360 4 2 359 354 344 343 348 353 355 356 1 7 10 15 17 13 14 16 14 16 19 16 13 10 6 6 7 5 4 5 3 1 3 7 10 14 21 27 33 36 40 48 43 16 1 356 349 332 316 297 282 277 266 261 262 259 258 258 256 255 255 254 256 257 257 258 258 255 254 256 259 261 262 261 260 259
149 148 148 145 141 132 94 1 6 18 18 9 359 352 352 355 357 359 0 5 11 13 14 17 16 17 17 16 17 18 19 20 20 18 14 11 10 10 9 6 5 7 9 12 17 22 26 31 32 31 39 47 19 359 358 3 359 351 345 296 294 276 265 271 268 263 264 262 261 261 260 259 260 260 262 265 264 262 262 261 262 263 263 262 262
155 159 159 154 152 149 140 2 10 18 14 7 1 358 359 0 0 4 7 9 13 13 14 17 20 19 19 21 20 19 21 23 22 21 17 11 10 10 8 9 10 12 14 15 19 26 28 30 33 33 34 40 29 5 5 14 15 13 28 30 327 304 285 285 284 280 279 276 273 272 269 264 263 264 265 267 268 272 273 268 266 267 265 263 264
163 163 157 158 166 168 156 7 5 3 2 1 356 358 6 6 3 9 14 11 9 12 14 14 19 22 23 27 25 20 20 19 16 13 10 8 9 7 5 7 9 13 19 20 21 28 33 32 33 34 31 35 36 17 9 16 24 27 38 48 14 338 323 306 298 293 291 288 285 284 283 279 274 271 270 270 271 272 272 266 262 263 263 262 267
168 162 159 168 177 179 193 355 353 340 344 354 352 358 8 9 9 16 16 13 11 13 15 14 18 21 21 23 22 17 15 17 14 9 5 6 9 9 7 5 5 10 17 22 25 29 32 35 35 33 31 29 26 18 9 8 17 31 40 41 27 353 334 319 306 300 297 297 297 296 295 291 283 274 269 268 267 266 266 265 261 259 259 261 268
158 160 169 180 179 179 211 293 325 306 320 345 348 356 5 9 18 22 17 17 21 20 22 23 21 20 20 19 19 17 16 17 16 14 14 14 13 15 16 13 10 14 17 21 28 28 27 32 33 31 32 25 10 6 4 3 11 29 34 28 18 1 346 327 308 304 303 303 306 307 301 290 281 276 272 271 269 265 263 264 263 262 263 265 268
164 168 177 187 192 201 230 259 281 288 307 331 341 351 1 8 21 26 21 26 32 30 32 34 29 26 26 25 26 26 24 24 23 22 24 25 24 25 27 27 25 27 29 29 30 30 31 35 34 30 30 28 16 6 358 354 3 22 27 20 14 8 2 345 314 309 315 315 314 312 305 296 288 286 286 286 285 279 271 266 264 264 266 267 268
177 178 178 187 211 231 240 247 249 271 305 320 324 339 356 9 20 31 31 35 39 38 37 37 36 35 33 34 38 37 32 31 32 29 26 27 27 27 30 33 34 37 40 40 37 35 37 38 37 33 29 26 26 18 359 350 356 8 12 9 7 4 5 6 349 328 325 322 320 322 325 326 325 319 312 306 301 296 288 280 275 272 270 269 268
180 179 177 190 219 234 243 253 248 250 280 300 306 318 343 6 21 43 43 40 42 40 36 36 38 39 37 37 43 45 40 35 31 27 24 23 23 25 26 29 35 39 42 42 42 42 43 41 38 36 34 29 28 22 5 353 354 359 358 360 1 359 4 16 12 345 339 338 334 340 350 357 359 350 338 331 327 323 319 309 294 285 284 283 274
187 181 181 195 219 232 239 253 250 247 267 284 276 278 317 358 23 176 87 46 38 34 33 32 33 38 40 37 37 42 44 36 27 23 25 25 25 26 26 24 27 31 34 38 41 40 40 41 39 34 33 30 23 17 9 359 356 356 354 356 359 356 2 17 13 351 349 350 347 360 17 24 21 17 12 10 9 7 5 2 356 345 330 315 295
197 185 186 198 215 228 232 240 248 252 264 265 237 232 256 340 185 200 191 75 23 16 22 21 16 26 40 42 37 31 31 35 32 27 28 30 29 30 31 27 23 22 23 29 35 34 31 31 30 25 21 21 20 16 9 1 357 357 355 355 358 357 2 11 8 358 360 1 359 10 23 28 27 28 29 27 25 22 21 21 25 29 24 6 336
199 189 191 202 214 225 227 227 235 243 239 225 219 214 214 222 210 203 202 195 358 358 4 3 359 9 23 34 37 25 20 34 41 38 36 34 28 30 36 35 28 23 21 21 25 27 26 25 26 23 15 16 21 18 7 359 356 358 358 356 356 358 360 5 12 16 17 14 15 19 24 24 23 23 25 26 23 21 22 23 25 28 30 25 15
197 190 197 209 217 222 224 224 227 223 204 206 209 202 204 212 204 199 208 214 222 277 334 340 345 14 18 16 29 30 25 30 40 50 57 50 38 34 41 43 37 35 37 36 32 28 21 18 24 28 22 18 17 8 1 1 3 5 8 7 5 6 7 13 30 38 32 25 30 32 31 29 27 24 24 24 20 18 21 22 21 22 26 29 29
202 195 201 213 218 218 220 222 222 212 199 203 207 200 202 206 199 196 207 219 231 240 261 292 322 23 17 357 7 35 31 27 32 43 68 82 64 48 46 48 47 44 45 47 47 44 38 32 31 30 22 18 18 9 4 10 20 26 28 30 29 31 37 44 49 47 40 35 39 39 34 33 32 30 29 26 21 19 19 20 20 21 20 22 26
201 199 205 211 214 217 218 218 218 212 205 206 206 202 202 202 198 200 209 222 241 249 251 257 268 47 19 346 348 22 21 19 33 32 35 96 124 89 60 51 50 50 50 50 48 47 47 48 50 46 22 12 21 27 23 22 31 43 46 47 47 48 53 56 54 49 45 42 41 41 39 36 33 32 31 28 25 24 21 18 19 20 20 18 17
Height
838 840 840 840 840 840 840 839 839 838 837 836 835 833 832 830 829 827 825 823 820 817 814 811 808 805 802 800 798 796 794 794 794 793 794 796 798 801 805 808 810 811 812 813 814 815 817 819 820 820 822 824 825 826 827 828 830 831 832 833 835 837 838 839 840 842 844 846 847 849 850 850 851 851 851 852 852 853 853 854 855 856 857 858 858
838 840 840 840 840 840 840 839 839 838 837 836 835 833 832 830 829 827 826 824 821 819 816 812 809 806 803 800 798 795 793 793 792 792 792 794 797 800 803 806 808 809 810 811 812 813 814 816 818 819 821 822 824 825 826 827 828 830 831 832 834 836 837 838 838 841 843 844 845 849 850 849 850 850 850 851 851 852 853 853 854 855 856 857 858
838 839 840 840 839 839 839 839 839 838 837 836 835 833 832 830 829 828 826 824 822 820 817 814 810 807 804 801 798 796 794 792 792 791 792 794 796 799 802 804 806 808 809 810 811 811 813 814 816 818 819 820 822 824 824 825 827 829 830 831 832 834 836 837 838 839 841 842 844 847 847 845 848 849 849 849 850 851 852 853 853 854 855 856 857
838 838 839 839 839 839 838 839 838 838 837 836 835 833 831 830 829 827 826 824 822 820 817 814 811 807 804 801 798 796 795 793 793 793 793 794 795 798 801 803 805 807 808 808 809 810 811 813 814 816 817 819 820 821 822 823 825 827 828 830 830 832 834 835 837 837 838 840 842 843 842 840 844 848 846 847 848 850 851 852 853 854 854 855 856
837 837 838 838 838 838 838 838 838 837 837 836 834 833 832 830 829 827 826 824 822 820 818 815 811 808 805 801 799 797 796 795 794 794 794 793 794 796 800 802 804 805 807 808 808 809 810 811 813 814 815 816 817 818 819 821 823 825 826 828 829 830 832 834 836 836 837 838 840 843 842 839 840 842 842 844 846 848 849 850 851 853 853 854 855
836 836 837 838 838 838 838 838 838 837 837 836 835 833 832 830 829 827 826 824 823 821 818 815 812 809 807 803 801 799 798 797 796 795 795 794 793 795 798 801 803 805 807 807 807 808 809 810 812 813 814 815 815 816 818 819 821 823 824 826 828 829 830 832 834 835 837 837 837 840 839 838 838 838 838 843 845 846 847 849 850 850 852 852 853
835 836 837 837 838 837 838 838 837 838 837 836 835 833 832 831 829 828 826 824 823 821 819 816 813 811 809 806 804 802 800 799 798 797 796 795 794 796 797 799 803 806 806 806 805 806 808 810 812 814 815 815 814 814 816 818 819 821 823 824 826 827 829 831 832 834 836 837 837 838 837 837 839 837 835 839 845 847 846 847 848 848 850 851 852
834 835 836 837 838 837 838 838 837 838 837 836 835 833 832 831 829 828 826 824 823 822 819 817 815 812 810 807 805 804 802 800 798 797 797 796 796 797 797 797 801 805 805 804 805 806 807 809 812 814 816 815 814 814 814 816 818 819 821 823 824 825 827 829 831 832 834 836 837 837 837 837 837 836 834 835 841 846 847 846 847 847 848 849 850
832 834 835 836 838 838 838 838 838 838 837 836 834 833 832 830 829 828 826 824 823 822 820 818 816 813 811 809 806 804 803 801 799 798 798 798 797 797 797 797 800 804 805 804 805 806 807 809 811 813 815 816 816 814 814 815 816 818 819 822 823 824 826 827 829 831 832 834 836 836 837 837 835 835 836 835 836 842 847 847 846 846 846 847 847
832 834 835 837 837 838 838 837 838 838 837 837 835 833 832 830 829 827 826 824 823 822 820 818 816 814 812 810 808 806 804 802 801 799 798 798 798 797 797 798 800 801 803 804 805 806 807 809 810 812 814 816 816 814 812 813 815 817 819 821 822 824 825 827 829 830 830 833 835 835 836 836 835 834 835 835 834 836 840 843 844 843 843 844 845
831 833 834 836 837 837 837 837 837 838 837 836 835 833 832 830 828 827 826 824 823 822 820 818 817 815 813 811 809 808 805 804 802 800 799 798 798 798 798 799 799 799 800 803 805 806 808 809 810 811 812 814 816 813 811 812 814 816 818 820 822 823 825 826 827 829 830 831 832 833 834 834 834 834 834 834 835 834 835 837 838 839 839 840 842
829 831 832 835 836 836 837 837 837 837 837 836 835 833 832 830 828 827 826 824 823 821 820 819 817 815 814 812 811 809 807 805 803 802 801 799 799 799 799 799 799 800 800 803 806 807 808 808 809 810 811 814 816 814 812 812 814 816 817 819 821 822 824 825 826 827 829 829 830 831 832 832 833 833 834 834 834 834 835 835 835 835 836 836 840
829 830 832 834 835 836 836 837 837 837 836 835 835 833 831 830 828 827 825 824 823 821 820 818 817 816 814 813 812 810 808 806 805 804 802 801 800 800 800 800 801 801 802 803 806 807 807 808 808 809 810 813 815 815 812 812 813 815 816 818 820 821 823 824 825 827 828 828 829 830 831 832 832 833 833 834 834 835 835 835 835 835 835 835 837
829 830 832 834 835 836 837 837 837 836 836 835 834 833 831 830 828 827 825 824 823 821 820 818 817 816 815 814 812 811 809 808 807 805 804 803 802 802 802 802 803 804 804 805 806 807 807 808 808 808 810 812 815 814 811 811 812 814 816 817 819 820 822 823 824 826 827 828 828 829 830 831 832 832 833 834 834 835 835 835 835 835 836 836 836
828 829 832 834 835 837 837 837 837 836 836 835 834 833 831 830 828 827 825 824 823 821 820 818 817 816 815 814 813 812 811 809 808 807 806 805 804 804 804 803 804 805 806 806 804 804 806 806 807 809 811 813 814 812 810 810 811 813 815 816 818 819 820 822 824 825 826 827 827 828 829 830 831 832 833 833 834 835 835 835 836 836 836 836 835
827 829 831 834 836 836 836 836 836 836 836 835 834 832 831 830 828 827 826 824 823 821 820 818 817 816 815 814 813 812 811 810 809 808 807 807 806 805 805 805 805 805 805 804 802 803 805 805 808 811 812 812 812 811 810 809 810 812 814 815 816 818 819 820 822 824 825 825 826 827 827 828 829 830 831 832 833 834 834 835 836 836 836 836 834
826 828 831 833 835 836 836 836 836 835 835 834 833 832 830 830 828 827 826 824 823 821 820 818 817 816 815 814 813 812 811 810 809 809 808 807 806 806 806 805 805 804 803 802 802 802 804 806 808 811 811 811 811 810 809 808 809 811 812 814 815 816 818 819 820 822 823 824 825 826 826 827 828 829 830 831 832 833 834 834 835 835 836 835 835
827 828 831 833 834 835 835 836 836 835 835 833 833 831 830 829 828 827 825 824 823 821 819 818 816 815 814 813 813 812 811 810 810 809 808 807 807 806 806 805 805 804 802 802 802 802 804 807 808 809 810 810 810 809 809 808 809 810 811 813 814 815 816 818 819 820 821 821 823 825 826 826 826 827 828 829 830 831 832 833 834 834 835 834 834
828 829 831 832 833 834 835 836 835 834 834 833 832 831 830 829 827 826 825 823 822 821 819 818 816 815 814 813 812 811 811 810 809 808 808 807 806 806 805 805 804 803 803 803 803 804 805 807 807 807 808 808 809 809 809 808 808 809 811 812 813 814 815 816 817 818 819 819 820 822 823 823 824 826 827 828 828 829 830 831 831 832 833 833 833
827 828 830 831 833 834 835 836 835 833 833 832 831 830 829 828 827 825 824 823 822 821 819 818 816 815 814 812 811 810 810 809 808 808 807 806 805 805 805 804 804 804 804 804 805 805 805 806 806 806 807 807 808 809 808 807 807 808 810 811 812 812 813 815 816 817 817 818 818 819 820 821 823 824 825 826 826 827 828 828 829 830 830 831 832
827 827 829 831 833 834 835 835 834 833 832 831 830 829 828 827 826 824 823 822 821 820 819 818 816 815 814 812 811 809 809 808 807 807 806 805 805 804 804 804 803 803 804 804 805 805 805 805 806 806 806 806 807 807 808 807 807 808 809 810 810 811 812 813 814 815 816 816 817 817 818 819 821 822 823 823 824 825 825 826 827 827 828 829 829
827 828 829 831 832 833 834 834 833 832 831 830 829 828 827 826 825 823 822 821 820 819 818 817 816 815 814 812 811 809 808 807 806 806 805 804 803 803 803 802 802 802 803 804 804 805 805 805 805 805 805 805 805 806 806 806 807 807 808 808 809 810 811 811 812 813 814 814 815 815 816 818 819 820 820 821 821 822 823 823 824 825 825 826 827
826 827 829 831 832 833 833 832 832 831 830 829 828 827 827 825 824 823 822 821 820 818 817 816 815 814 813 812 810 809 807 806 805 804 804 803 802 802 802 801 801 801 802 802 803 803 803 803 803 803 803 803 803 803 804 805 806 807 807 807 808 809 810 810 811 811 812 812 813 814 815 816 817 817 818 818 819 820 820 821 821 822 823 823 824
826 827 829 830 832 832 832 831 830 830 829 828 827 827 826 825 824 823 822 821 819 818 817 815 815 813 812 811 810 809 807 806 804 803 803 803 802 801 801 800 800 800 800 801 801 801 801 802 802 802 801 801 801 802 803 804 805 807 807 807 807 808 809 809 810 809 810 810 811 812 813 814 815 815 815 816 817 817 818 818 818 819 820 821 822
825 826 828 830 831 831 830 830 829 829 828 827 828 827 826 825 825 823 822 821 819 817 816 815 814 813 811 811 810 808 807 806 805 804 803 802 801 801 800 799 799 799 799 799 799 799 799 799 800 800 800 800 800 801 802 803 804 806 806 807 807 808 808 808 808 808 808 808 809 810 811 812 812 812 813 814 814 815 816 816 816 816 817 818 818
823 825 827 828 829 830 830 830 829 828 827 827 828 827 825 825 824 823 822 820 819 817 816 815 814 812 811 810 809 808 807 806 805 804 803 802 801 800 800 799 799 798 798 798 798 798 797 797 798 798 799 799 799 800 801 802 803 804 805 806 806 806 806 807 807 807 807 807 807 808 808 809 810 810 811 811 812 813 813 813 813 814 814 815 815
822 824 826 827 828 829 829 829 829 828 828 828 828 827 826 825 823 822 821 820 819 817 815 814 813 812 811 810 809 808 807 806 805 804 803 802 801 801 800 799 798 798 797 797 797 797 796 796 796 796 797 797 798 799 800 801 801 802 803 804 804 805 805 806 806 806 806 806 805 805 806 807 808 808 808 809 810 811 810 810 811 811 812 812 812
821 823 825 826 827 828 828 828 829 828 829 829 828 826 826 825 823 822 821 819 818 817 815 814 813 812 811 810 809 808 807 806 805 804 803 802 801 801 800 799 798 797 797 796 796 795 795 795 795 795 795 796 796 797 798 799 800 801 801 802 802 803 803 804 804 804 804 804 803 804 804 805 806 806 806 807 808 808 808 807 808 808 809 809 809
819 821 824 825 826 827 827 828 828 828 828 828 827 827 826 825 824 821 820 819 818 817 815 814 813 812 811 810 809 808 806 805 804 803 803 802 801 801 800 799 798 797 796 796 795 794 794 794 794 794 795 795 795 796 797 798 798 799 799 800 800 801 801 801 801 802 802 802 802 802 802 803 804 804 804 805 805 805 805 805 805 806 807 807 806
816 819 822 824 825 826 826 826 826 827 828 827 827 827 826 825 823 821 820 818 817 817 815 814 813 812 811 810 809 808 807 806 804 803 802 802 801 800 799 799 798 797 796 796 795 794 793 793 793 793 794 794 795 796 796 796 796 796 796 797 797 797 798 799 799 800 800 800 800 800 801 801 802 802 802 803 803 803 803 803 803 804 804 805 805
815 818 821 822 824 825 825 825 826 826 827 827 827 827 826 824 823 821 820 818 817 817 815 814 813 812 811 810 809 808 807 806 805 803 802 802 801 800 799 798 798 797 796 796 795 794 793 793 793 793 793 794 794 795 795 795 795 795 794 795 795 796 796 797 798 799 799 799 799 799 799 800 800 801 801 801 801 802 802 802 802 802 803 803 803
815 817 819 821 822 824 825 826 826 826 827 827 826 826 825 824 822 821 820 818 817 816 815 814 813 812 811 810 809 808 807 806 805 804 803 802 801 800 799 798 798 797 797 796 795 794 793 792 792 792 792 793 793 793 793 794 795 795 795 795 796 796 795 795 795 796 796 797 797 797 797 797 798 798 799 799 799 800 800 800 800 801 801 801 801
815 817 819 820 822 823 825 825 826 826 826 827 826 826 825 823 822 821 819 818 817 816 815 815 813 813 812 810 810 809 808 807 806 804 803 802 801 800 799 799 798 798 797 796 796 794 793 792 792 791 791 792 792 792 793 793 794 794 794 795 795 795 794 794 793 793 793 794 794 795 795 795 796 796 797 797 797 797 797 797 798 798 797 798 798
815 817 818 820 822 824 825 825 825 826 826 827 826 825 825 823 822 820 819 817 816 816 816 815 814 813 813 811 810 809 808 807 806 805 804 802 801 801 800 800 799 798 798 797 796 795 794 793 792 792 792 792 792 792 792 792 793 793 793 793 794 794 793 792 792 792 792 792 792 793 793 793 794 794 795 795 796 796 796 795 795 795 794 794 794
815 817 818 820 822 824 825 825 825 826 826 826 825 825 824 822 821 820 819 817 816 816 816 816 815 814 813 812 811 810 809 808 807 806 804 803 803 802 801 801 800 799 799 798 797 796 795 794 794 793 792 792 792 793 792 792 792 792 791 791 791 791 791 791 791 791 791 790 791 791 791 791 792 792 793 793 794 794 794 793 793 793 792 791 790
814 816 818 820 822 823 825 825 826 826 825 825 825 825 824 822 821 820 819 817 816 816 816 816 816 815 814 813 812 811 810 809 807 806 805 804 804 803 802 802 801 800 799 798 798 797 796 795 795 794 794 793 793 793 792 792 792 791 790 790 790 790 790 789 789 789 789 789 789 789 789 789 790 790 791 791 792 792 792 792 791 790 790 789 788
814 816 818 820 822 824 825 826 825 825 825 825 825 824 823 821 820 820 819 817 816 816 817 817 816 815 815 814 813 812 811 809 808 807 806 805 804 803 803 802 801 801 800 799 798 798 797 797 796 795 795 795 794 793 792 791 791 790 790 790 790 789 789 788 788 788 788 788 788 787 787 787 787 787 788 789 790 790 790 790 789 788 787 786 785
814 816 818 820 822 823 825 825 825 825 825 825 825 824 822 821 820 820 819 818 817 818 818 817 816 816 815 814 814 812 811 810 809 808 807 806 805 804 803 803 802 801 800 800 799 798 798 797 797 796 796 796 795 794 793 792 791 790 789 789 789 788 787 787 787 787 786 786 786 786 786 786 785 785 786 786 786 787 788 787 786 785 784 783 782
814 816 817 819 821 822 823 824 824 824 825 825 824 823 822 821 820 820 819 819 818 818 818 817 817 816 815 815 814 813 812 811 810 809 808 807 806 805 804 803 802 801 800 800 799 799 798 798 798 797 797 797 796 795 794 792 791 790 789 789 789 788 787 787 787 786 785 784 784 784 784 784 784 784 784 784 784 784 785 784 784 783 781 780 780
814 816 817 819 821 821 822 822 823 824 824 824 824 822 821 821 821 820 820 819 819 819 818 818 817 816 816 815 814 814 813 812 811 810 809 808 807 806 805 803 802 801 801 801 800 799 799 799 798 798 797 797 797 796 795 793 792 790 789 788 789 789 788 788 787 786 785 784 783 783 782 782 782 782 782 782 781 782 782 781 781 781 779 778 778
813 815 817 819 819 820 821 822 823 824 823 824 823 821 821 821 820 820 821 820 820 819 818 818 817 816 816 815 814 814 813 812 812 811 810 808 807 806 805 804 802 802 801 801 801 800 799 799 799 799 798 798 797 796 796 794 792 791 790 788 789 789 788 787 786 785 784 783 782 781 781 780 779 779 779 778 778 778 778 778 777 777 777 776 776
813 815 817 818 818 820 821 821 822 823 823 823 823 822 821 821 820 821 821 821 820 819 818 817 817 816 816 815 815 814 813 812 812 811 810 808 807 806 806 804 803 802 801 801 800 800 799 799 799 799 798 798 797 796 796 795 793 791 790 789 788 788 787 786 785 784 783 782 781 781 780 778 777 776 775 775 774 774 774 774 774 774 774 774 774
813 815 816 817 818 819 819 820 821 822 822 822 822 822 821 820 821 822 822 821 821 820 819 818 818 817 816 815 815 814 814 813 812 811 809 808 807 806 806 805 804 802 801 801 800 799 799 799 799 799 798 798 797 796 795 794 793 791 790 789 788 787 785 784 784 783 783 782 781 780 778 776 775 774 773 772 771 771 771 771 771 771 772 772 772
811 813 815 816 817 817 818 819 820 821 822 821 822 821 821 821 822 822 822 821 820 820 820 819 819 818 816 815 815 815 814 813 812 811 810 809 808 807 806 805 804 803 802 801 801 800 799 799 799 799 798 798 797 796 795 794 793 791 789 788 787 786 785 783 783 783 782 782 780 779 777 774 773 772 770 769 768 768 768 768 768 768 768 768 768
810 812 814 815 816 816 818 818 819 821 821 820 821 821 821 821 822 822 821 821 820 820 820 819 819 818 817 816 815 815 814 813 812 811 811 810 809 808 807 806 805 804 803 802 802 801 800 800 799 799 798 797 797 797 796 794 792 791 789 787 786 785 784 782 782 782 782 780 779 777 775 773 772 770 769 768 767 767 766 766 765 765 765 765 764
810 811 813 814 815 816 817 817 818 819 820 819 820 821 820 821 821 821 821 821 821 820 820 819 819 819 818 817 816 815 815 814 813 812 811 810 810 809 808 807 806 805 804 804 803 803 802 801 801 800 799 798 798 798 797 795 792 790 789 787 786 785 783 782 781 781 780 779 778 776 774 772 771 770 769 768 767 766 765 764 763 763 762 762 762
809 810 812 813 814 815 815 816 817 817 818 819 819 819 820 820 821 821 821 821 821 820 819 819 819 819 818 818 817 816 815 815 814 813 812 811 811 810 809 808 807 806 805 805 804 804 803 802 802 801 800 799 798 798 797 794 792 790 788 787 786 785 783 782 782 781 780 779 778 776 774 773 771 770 769 769 768 766 765 764 763 762 762 762 762
808 809 811 812 813 813 813 814 815 816 817 818 818 818 819 820 820 820 820 820 820 820 820 819 819 818 818 818 817 817 816 815 815 814 814 813 812 811 811 811 810 809 808 807 806 805 805 804 803 802 801 800 799 798 797 795 793 791 789 787 786 784 783 783 782 780 779 779 778 776 775 774 772 771 770 769 769 768 766 765 764 763 762 761 761
807 808 810 810 811 812 812 813 814 814 816 817 817 818 818 819 819 820 819 819 820 820 820 819 818 818 818 817 817 817 816 816 815 815 815 815 814 813 813 813 812 811 810 809 808 807 806 805 805 804 803 802 801 800 798 796 794 792 791 789 787 785 784 783 782 780 778 778 778 777 776 775 774 773 772 771 770 769 768 767 766 764 763 761 760
805 807 808 809 810 811 811 812 813 813 815 816 816 817 817 818 818 819 819 819 819 818 819 818 817 817 817 817 816 816 816 816 815 815 815 815 815 815 814 814 814 813 811 810 809 808 808 807 806 806 805 804 803 802 800 797 796 794 793 791 789 787 785 784 783 780 779 779 778 777 777 777 776 775 775 774 773 772 771 769 768 767 765 763 762
804 805 806 807 809 809 810 811 812 812 814 815 815 816 816 817 817 818 818 818 818 817 817 817 816 817 817 817 816 816 816 816 815 815 815 814 814 815 815 814 814 813 812 811 810 809 809 808 807 807 806 805 804 802 800 799 797 796 794 792 790 789 787 785 784 782 781 781 780 779 779 779 778 778 778 777 776 775 774 772 771 769 768 766 765